Tracking 28790 objects as of 19-Apr-2024
HD Live streaming from Space Station
objects crossing your sky now

SL-8 R/B

Track SL-8 R/B now!
10-day predictions


NORAD ID: 16292
Int'l Code: 1985-110B
Perigee: 959.9 km
Apogee: 1,002.7 km
Inclination: 82.9 °
Period: 104.6 minutes
Semi major axis: 7352 km
RCS: 4.4444 m2 (large)
Launch date: November 28, 1985
Source: Commonwealth of Independent States (former USSR) (CIS)
Launch site: PLESETSK MISSILE AND SPACE COMPLEX (PKMTR)

Note: This is a ROCKET BODY
Your satellite tracking list
Your tracking list is empty




NASA's NSSDC Master Catalog

Two Line Element Set (TLE):
1 16292U 85110B   24109.60513203  .00000067  00000-0  52319-4 0  9998
2 16292  82.9281 304.7098 0029122 301.1596  58.6706 13.77117606928497
Source of the keplerian elements: AFSPC